STARLINK-32686, 62192

Orbit data source: Space-Track

STARLINK-32686, 62192 is a payload satellite owned by SpaceX/Seattle (US) in LEO that was launched on Wed, 04 Dec 2024 UTC via an FALCON 9 launch vehicle from the Air Force Eastern Test Range (AFETR). Payload-class satellites include a variety of spacecraft equipped with specific instruments for various scientific and technological missions. These include communications satellites like Starlink; space stations such as the ISS; scientific satellites like the Hubble; Earth observation satellites from companies like Planet Labs, Umbra, and HawkEye 360; GPS; miniature CubeSats for education and research; and military/defense satellites.

Loading next visibility...
Identifier
62192, 2024-229A
Orbit
LEO
Last TLE update
14 hours ago
Origin
Manufacturer
SpaceX/Seattle
Mission
Operational Commercial Communications
Bus & Motor
STARLINK V2M, Unknown motor
Mass
730 kg wet, ~700 kg dry
Launch date (UTC)
2024-12-04 (7 months ago)
Launch vehicle
FALCON 9
Launch site
Air Force Eastern Test Range (AFETR)
Object type
Payload
Rocket body
Debris
Shape & HBR
Box + 2 Pan, 29 m
Radar Cross Section
33.884 m², Large (>1 m²)

Expand to show TLE details & history

TLE from 14 hours ago
0 STARLINK-32686
1 62192U 24229A   25189.73487642  .00016698  00000-0  61475-3 0  9991
2 62192  42.9995 204.8142 0001817 282.1826  77.8822 15.27589640 33295
Epoch: 2025-07-08T17:38Z
TLE epoch observation values (Epoch: 2025-07-08T17:38:13.322Z)
Latitude
-0.00003°
Longitude
13.33306°
Altitude
482.534 km
Speed
7.626 km/s
True Right ascension
13h 39m 15s
True Declination
0° 00' 00"
Sunlit
Object was in daylight at epoch
Visualization orbit readout
Latitude
-9.18505°
Longitude
0.09198°
Altitude
483.772 km
Speed
7.625 km/s
Apparent Right ascension
10h 46m 24s
Apparent Declination
-28° 44' 03"
Sunlit
Object is in daylight
Visualization observer readout
Local Sidereal Time
19:51:38
Azimuth
273.598° WNW
Elevation
-52.631°
Doppler factor
1
Orbital elements
Apogee altitude
486.213 km
Perigee altitude
483.718 km
Semi-major axis
6,863.102 km
Eccentricity
0.00018
Inclination
42.9995°
RAAN
204.8142°
Arg. of periapsis
282.1826°
True anomaly
Unknown
Mean anomaly
77.8822°
Eccentric anomaly
Unknown
Mean motion
3.81735 °/min
Orbital period
94.31 mins
BSTAR
0.00061475
Loading maneuver chart data...
Loading SW <> Apogee altitude chart data...
Loading historical data...
Loading historical data...
Loading historical data...
Loading historical data...
Loading historical data...
Loading historical data...
Loading historical data...

STARLINK-32686 Visibility forecast

Observer location: undefined°, undefined°

Span
Click to sort rows by Start time (UTC) header in descending order
Start Az.
Max El. time (UTC)
Max El. Az.
Max El.
End time (UTC)
End Az.
6 mins2025-07-09 08:09:05.818Z291.705° WNW2025-07-09 08:12:05.818Z24.013° NE40.81°2025-07-09 08:15:05.818Z89.553° E
5 mins2025-07-09 09:49:05.818Z267.665° W2025-07-09 09:51:05.818Z194.028° SSW36.017°2025-07-09 09:54:05.818Z134.145° SE
5 mins2025-07-10 04:24:05.818Z221.602° SW2025-07-10 04:26:05.818Z144.906° SSE38.88°2025-07-10 04:29:05.818Z78.905° E
5 mins2025-07-10 06:03:05.818Z281.943° WNW2025-07-10 06:05:05.818Z4.755° NNE39.933°2025-07-10 06:08:05.818Z69.933° E
|